Regional Weather Roundup
Issued by NWS Midland/Odessa, TX

Skip options and go directly to product.
Home | Oldest Version | Previous Version | Current Version | All | Graphics & Text | Save Text | Print | Product List | Glossary On

Skip product version selection by date and time.   
154
ASUS44 KMAF 020502
RWRMAF
MIDLAND AREA WEATHER ROUNDUP
NATIONAL WEATHER SERVICE MIDLAND TX
1200 AM CDT TUE SEP 02 2014

...IN SOUTHWEST TEXAS AND SOUTHEAST NEW MEXICO...

CITY           SKY/WX    TMP DP  RH WIND       PRES   REMARKS
ALPINE         CLEAR     80  57  46 S7        30.09S
ANDREWS        FAIR      86  60  42 S15G21    29.93R
ARTESIA        NOT AVBL
BIG SPRING     CLEAR     87  58  38 SE16      29.92S
CARLSBAD       CLEAR     83  39  21 W10       29.89S
DRYDEN           N/A     91  61  36 SE15      29.89R
FORT STOCKTON  CLEAR     84  59  42 SE18G29   29.92R
GUAD PASS      CLEAR     80  38  22 W13       30.12S
HOBBS          CLEAR     82  54  36 S12       29.96R
MARFA          CLEAR     75  54  46 S8        30.10R
MIDLAND AIRPK  NOT AVBL
MIDLAND INTL   CLEAR     87  60  40 S15       29.92R
ODESSA         CLEAR     87  60  40 S17       29.93R
PECOS          CLEAR     88  57  35 SE9       29.88R
PRESIDIO       FAIR      92  55  27 NE10G16   29.88R
SEMINOLE       CLEAR     86  58  38 S14G21    29.94R
SNYDER         CLEAR     85  62  45 S13       29.90S
WINK           CLEAR     89  61  38 S15G22    29.88R
$$
...OTHER STATIONS IN TEXAS...

CITY           SKY/WX    TMP DP  RH WIND       PRES   REMARKS
ABILENE        CLEAR     87  62  43 S18       29.88S
AMARILLO       CLEAR     75  64  68 E13       29.93S
AUSTIN         CLEAR     82  73  74 S12       29.93R
BROWNSVILLE    CLEAR     82  79  90 E7        29.90S
CORPUS CHRISTI PTCLDY    82  77  84 SE12      29.91S
DALLAS FTW     CLEAR     87  69  54 S15G25    29.87R
DEL RIO        CLEAR     89  64  43 SE13      29.85R
EL PASO        CLEAR     88  35  15 W6        29.97S
HOUSTON INT    PTCLDY    81  77  89 S6        29.94F
LUBBOCK        CLEAR     85  59  41 S22G28    29.90R
SAN ANGELO     CLEAR     86  61  42 S13G20    29.90S
SAN ANTONIO    CLEAR     83  73  72 SE13      29.95R
WACO           CLEAR     85  68  56 S21       29.91R
WICHITA FALLS  NOT AVBL
$$
...OTHER LOCATIONS IN NEW MEXICO...

CITY           SKY/WX    TMP DP  RH WIND       PRES   REMARKS
ALAMAGORDO     CLEAR     77  32  19 CALM      29.99R
ALBUQUERQUE    CLEAR     78  39  24 S3        30.08R
CANNON AFB     CLEAR     77  43  29 NW7       29.97S
CLOVIS           N/A     72  46  40 CALM      30.00R
HOLLOMAN AFB   CLEAR     76  37  23 S2        29.97R
ROSWELL        CLEAR     76  42  29 SW7       29.91S
RUIDOSO        NOT AVBL
SANTA FE       CLEAR     63  32  31 N8        30.14S
TRUTH OR CONSE CLEAR     77  35  21 N5        30.02R
TUCUMCARI      CLEAR     78  37  22 VRB5      29.92S
$$

USA.gov is the U.S. government's official web portal to all federal, state and local government web resources and services.